This is the latest recevied weather packets stored in our database for station/object AB8Y-13. If no packets are shown the sender has not sent any weather packets the latest 10 day(s).
| Time | Temp. | Humidity | Pressure | Rain* | Wind** | Luminosity | Snow |
|---|---|---|---|---|---|---|---|
| 1777074511 | 17.78° C | 95% | 1006.6 hPa | 3.05 mm | - | 11 W/m² | - |
| 1777074207 | 17.78° C | 94% | 1006.4 hPa | 0 mm | - | 10 W/m² | - |
| 1777073904 | 17.78° C | 94% | 1006.5 hPa | 1.78 mm | - | 23 W/m² | - |
| 1777073599 | 17.78° C | 94% | 1006.6 hPa | 1.78 mm | - | 26 W/m² | - |
| 1777073295 | 17.78° C | 94% | 1006.7 hPa | 0 mm | - | 32 W/m² | - |
| 1777072990 | 17.78° C | 94% | 1006.7 hPa | 0 mm | - | 35 W/m² | - |
| 1777072687 | 17.78° C | 94% | 1006.6 hPa | 0 mm | - | 47 W/m² | - |
| 1777072386 | 17.78° C | 94% | 1006.8 hPa | 0 mm | - | 52 W/m² | - |
| 1777072085 | 17.78° C | 94% | 1006.7 hPa | 0 mm | - | 39 W/m² | - |
| 1777071781 | 18.33° C | 94% | 1006.8 hPa | 0 mm | - | 25 W/m² | - |
| 1777071479 | 18.33° C | 94% | 1006.6 hPa | 0 mm | - | 26 W/m² | - |
| 1777071177 | 18.33° C | 94% | 1006.6 hPa | 0 mm | - | 38 W/m² | - |
| 1777070874 | 18.33° C | 93% | 1006.8 hPa | 1.27 mm | - | 47 W/m² | - |
| 1777070572 | 18.33° C | 93% | 1006.6 hPa | 1.27 mm | - | 62 W/m² | - |
| 1777070271 | 18.33° C | 93% | 1006.7 hPa | 1.27 mm | - | 61 W/m² | - |
| 1777069971 | 18.33° C | 93% | 1006.6 hPa | 0 mm | - | 77 W/m² | - |
| 1777069671 | 18.33° C | 93% | 1006.5 hPa | 0 mm | - | 87 W/m² | - |
| 1777069366 | 18.89° C | 93% | 1006.5 hPa | 0 mm | - | 65 W/m² | - |
| 1777069064 | 18.33° C | 94% | 1006.4 hPa | 0 mm | - | 125 W/m² | - |
| 1777068759 | 18.33° C | 94% | 1006.6 hPa | 0 mm | - | 174 W/m² | - |
| 1777068455 | 18.33° C | 94% | 1006.6 hPa | 0 mm | - | 118 W/m² | - |
| 1777068154 | 18.33° C | 95% | 1006.5 hPa | 0 mm | - | 117 W/m² | - |
| 1777067849 | 17.78° C | 95% | 1006.2 hPa | 0 mm | - | 100 W/m² | - |
| 1777067548 | 17.78° C | 94% | 1006.5 hPa | 0 mm | - | 65 W/m² | - |
| 1777067246 | 17.78° C | 94% | 1006.4 hPa | 6.1 mm | - | 30 W/m² | - |
* Rain latest hour (hover to see other rain measurements)
** Current wind speed in m/s (hover to see current wind gust speed)